Voltar ao catálogo

ORBCOMM FM 9

AtivoComunicaçõesLEO
NORAD 25116·PAYLOAD·🇺🇸 United States

Lançado Dec 23, 1997 de Cape Canaveral Space Force Station

Loading…

Próximas Passagens (próximas 24 horas)

TLE

AtualizadoSource: Space-Track

Época: Sep 14, 2026, 14:36 UTC

1 25116U 97084E   26257.60888219  .00000753  00000-0  24621-3 0  9990
2 25116  45.0162 349.2849 0004556 326.9090  33.1477 14.46700596507259

Acompanhe ORBCOMM FM 9 em tempo real com AllMySat

Download on the App Store